Location: A�t �Alizem
(31.2076°N, 8.7872°W)
Time: 06:37:13
(UTC+00:00)

Cosmos 2228 Rocket - Pass Details

Date: 27 November 2020
Orbit: 618 x 652 km, 82.5° (Epoch: 25 January)

Event Time Altitude Azimuth Distance (km) Brightness Sun altitude
Rises 19:08:21 0° 180° (S) 2,954 6.7 -20.2°
Reaches altitude 10° 19:10:36 10° 178° (S) 2,045 5.8 -20.6°
Maximum altitude 19:15:07 71° 95° (E) 687 3.0 -21.6°
Enters shadow 19:16:17 48° 28° (NNE) 847 3.4 -21.8°
